When you browse on this site, cookies collect data to enhance your experience and personalize the content and advertising you see.
Visit our Privacy Policy to learn more. By continuing to use the site, you agree to this use of cookies and data.
  • In Switzerland
  • List of Countries
  • For 7 days
  • Water Temperature
  • Weather Map
  • Weather Widgets
  • user-avatar
    Login

    Hourly Weather Tonton

    Today, 6 June, Saturday

    Time Temperature Precipitation Wind Pressure Humidity
    00:00 +6°C° 0 mm 5 mps 749 mmHg 92%
    01:00 +5°C° 0 mm 5 mps 749 mmHg 91%
    02:00 +4°C° 0 mm 6 mps 749 mmHg 90%
    03:00 +4°C° 0 mm 6 mps 749 mmHg 89%
    04:00 +4°C° 0 mm 6 mps 749 mmHg 89%
    05:00 +5°C° 0 mm 7 mps 749 mmHg 88%
    06:00 +5°C° 0 mm 7 mps 749 mmHg 89%
    07:00 +6°C° 0 mm 7 mps 749 mmHg 84%
    08:00 +7°C° 0 mm 8 mps 749 mmHg 79%
    09:00 +7°C° 0 mm 9 mps 749 mmHg 74%
    10:00 +7°C° 0.2 mm 9 mps 749 mmHg 78%
    11:00 +8°C° 0.2 mm 9 mps 749 mmHg 82%
    12:00 +9°C° 0 mm 8 mps 749 mmHg 88%
    13:00 +9°C° 0.2 mm 8 mps 749 mmHg 89%
    14:00 +10°C° 0.2 mm 8 mps 750 mmHg 89%
    15:00 +10°C° 0.2 mm 7 mps 750 mmHg 90%
    16:00 +10°C° 0.1 mm 7 mps 750 mmHg 90%
    17:00 +10°C° 0.1 mm 7 mps 750 mmHg 90%
    18:00 +10°C° 0.1 mm 6 mps 750 mmHg 90%
    19:00 +10°C° 0 mm 6 mps 750 mmHg 91%
    20:00 +9°C° 0 mm 5 mps 751 mmHg 92%
    21:00 +8°C° 0 mm 4 mps 751 mmHg 93%
    22:00 +8°C° 0 mm 4 mps 751 mmHg 93%
    23:00 +7°C° 0 mm 4 mps 752 mmHg 94%

    Tomorrow, 7 June, Sunday

    Time Temperature Precipitation Wind Pressure Humidity
    00:00 +7°C° 0 mm 4 mps 752 mmHg 95%
    01:00 +8°C° 0 mm 3 mps 752 mmHg 95%
    02:00 +8°C° 0 mm 3 mps 752 mmHg 95%
    03:00 +7°C° 0 mm 2 mps 752 mmHg 96%
    04:00 +8°C° 0 mm 3 mps 752 mmHg 95%
    05:00 +9°C° 0 mm 3 mps 753 mmHg 94%
    06:00 +10°C° 0 mm 3 mps 753 mmHg 93%
    07:00 +12°C° 0 mm 3 mps 754 mmHg 88%
    08:00 +13°C° 0 mm 4 mps 754 mmHg 82%
    09:00 +14°C° 0 mm 4 mps 755 mmHg 76%
    10:00 +15°C° 0 mm 4 mps 755 mmHg 74%
    11:00 +15°C° 0 mm 4 mps 755 mmHg 71%
    12:00 +17°C° 0 mm 4 mps 756 mmHg 69%
    13:00 +17°C° 0.1 mm 4 mps 756 mmHg 70%
    14:00 +17°C° 0.1 mm 4 mps 756 mmHg 72%
    15:00 +18°C° 0.1 mm 4 mps 756 mmHg 73%
    16:00 +17°C° 0.3 mm 4 mps 757 mmHg 77%
    17:00 +17°C° 0.3 mm 4 mps 757 mmHg 80%
    18:00 +15°C° 0.3 mm 4 mps 757 mmHg 84%
    19:00 +14°C° 0.1 mm 3 mps 758 mmHg 87%
    20:00 +12°C° 0.1 mm 3 mps 758 mmHg 90%
    21:00 +11°C° 0.1 mm 3 mps 759 mmHg 94%
    22:00 +10°C° 0 mm 3 mps 759 mmHg 94%
    23:00 +9°C° 0 mm 3 mps 759 mmHg 94%

    Day after tomorrow, 8 June, Monday

    Time Temperature Precipitation Wind Pressure Humidity
    00:00 +9°C° 0 mm 3 mps 759 mmHg 94%
    01:00 +8°C° 0 mm 3 mps 760 mmHg 94%
    02:00 +8°C° 0 mm 3 mps 760 mmHg 95%
    03:00 +7°C° 0 mm 3 mps 760 mmHg 95%
    04:00 +8°C° 0 mm 3 mps 760 mmHg 95%
    05:00 +8°C° 0 mm 3 mps 760 mmHg 94%
    06:00 +9°C° 0 mm 3 mps 761 mmHg 93%
    07:00 +10°C° 0 mm 3 mps 761 mmHg 88%
    08:00 +11°C° 0 mm 3 mps 762 mmHg 83%
    09:00 +13°C° 0 mm 3 mps 762 mmHg 77%
    10:00 +14°C° 0 mm 3 mps 762 mmHg 73%
    11:00 +16°C° 0 mm 3 mps 762 mmHg 69%
    12:00 +17°C° 0 mm 3 mps 762 mmHg 65%
    13:00 +17°C° 0.1 mm 3 mps 762 mmHg 66%
    14:00 +17°C° 0.1 mm 2 mps 762 mmHg 67%
    15:00 +17°C° 0.1 mm 2 mps 762 mmHg 67%
    16:00 +16°C° 0.1 mm 2 mps 762 mmHg 71%
    17:00 +15°C° 0.1 mm 2 mps 762 mmHg 74%
    18:00 +15°C° 0.1 mm 2 mps 762 mmHg 77%
    19:00 +14°C° 0 mm 2 mps 762 mmHg 81%
    20:00 +12°C° 0 mm 1 mps 763 mmHg 85%
    21:00 +11°C° 0 mm 1 mps 763 mmHg 89%
    22:00 +11°C° 0 mm 1 mps 763 mmHg 89%
    23:00 +10°C° 0 mm 1 mps 763 mmHg 90%

    9 June, Tuesday

    Time Temperature Precipitation Wind Pressure Humidity
    00:00 +10°C° 0 mm 1 mps 763 mmHg 91%
    01:00 +10°C° 0 mm 1 mps 763 mmHg 89%
    02:00 +10°C° 0 mm 1 mps 763 mmHg 88%
    03:00 +10°C° 0 mm 1 mps 763 mmHg 87%
    04:00 +10°C° 0 mm 1 mps 763 mmHg 85%
    05:00 +11°C° 0 mm 1 mps 763 mmHg 83%
    06:00 +12°C° 0 mm 1 mps 763 mmHg 81%
    07:00 +12°C° 0 mm 1 mps 764 mmHg 80%
    08:00 +13°C° 0 mm 1 mps 764 mmHg 78%
    09:00 +14°C° 0 mm 1 mps 764 mmHg 77%
    10:00 +15°C° 0.1 mm 2 mps 764 mmHg 76%
    11:00 +15°C° 0.1 mm 2 mps 764 mmHg 75%
    12:00 +16°C° 0.1 mm 2 mps 764 mmHg 74%
    13:00 +16°C° 0.1 mm 2 mps 764 mmHg 76%
    14:00 +14°C° 0.1 mm 3 mps 763 mmHg 78%
    15:00 +14°C° 0.1 mm 3 mps 763 mmHg 81%
    16:00 +13°C° 0.1 mm 3 mps 763 mmHg 83%
    17:00 +14°C° 0.1 mm 2 mps 763 mmHg 85%
    18:00 +14°C° 0.1 mm 2 mps 763 mmHg 88%
    19:00 +13°C° 0 mm 2 mps 763 mmHg 89%
    20:00 +12°C° 0 mm 2 mps 763 mmHg 91%
    21:00 +10°C° 0 mm 2 mps 763 mmHg 93%
    22:00 +10°C° 0 mm 2 mps 763 mmHg 93%
    23:00 +10°C° 0 mm 1 mps 763 mmHg 92%

    10 June, Wednesday

    Time Temperature Precipitation Wind Pressure Humidity
    00:00 +10°C° 0 mm 1 mps 763 mmHg 92%
    01:00 +10°C° 0 mm 1 mps 762 mmHg 92%
    02:00 +9°C° 0 mm 2 mps 762 mmHg 92%
    03:00 +9°C° 0 mm 2 mps 762 mmHg 93%
    04:00 +10°C° 0 mm 2 mps 762 mmHg 92%
    05:00 +11°C° 0 mm 1 mps 761 mmHg 91%
    06:00 +12°C° 0 mm 1 mps 761 mmHg 91%
    07:00 +12°C° 0 mm 1 mps 761 mmHg 89%
    08:00 +12°C° 0 mm 1 mps 761 mmHg 88%
    09:00 +13°C° 0 mm 2 mps 761 mmHg 87%
    10:00 +13°C° 0 mm 2 mps 760 mmHg 85%
    11:00 +12°C° 0 mm 3 mps 760 mmHg 84%
    12:00 +12°C° 0 mm 4 mps 760 mmHg 83%
    13:00 +12°C° 0.1 mm 4 mps 759 mmHg 85%
    14:00 +11°C° 0.1 mm 4 mps 758 mmHg 87%
    15:00 +10°C° 0.1 mm 5 mps 758 mmHg 90%
    16:00 +10°C° 0.3 mm 5 mps 757 mmHg 92%
    17:00 +10°C° 0.3 mm 5 mps 757 mmHg 93%
    18:00 +10°C° 0.3 mm 5 mps 756 mmHg 95%
    19:00 +10°C° 0.2 mm 5 mps 755 mmHg 96%
    20:00 +10°C° 0.2 mm 5 mps 755 mmHg 96%
    21:00 +11°C° 0.2 mm 4 mps 754 mmHg 97%
    22:00 +11°C° 0.2 mm 4 mps 754 mmHg 97%
    23:00 +11°C° 0.2 mm 4 mps 753 mmHg 96%

    11 June, Thursday

    Time Temperature Precipitation Wind Pressure Humidity
    00:00 +11°C° 0.2 mm 4 mps 752 mmHg 96%
    01:00 +10°C° 0.6 mm 4 mps 751 mmHg 96%
    02:00 +10°C° 0.6 mm 3 mps 751 mmHg 95%
    03:00 +10°C° 0.6 mm 3 mps 750 mmHg 95%
    04:00 +10°C° 0.3 mm 3 mps 750 mmHg 94%
    05:00 +10°C° 0.3 mm 4 mps 749 mmHg 94%
    06:00 +10°C° 0.3 mm 4 mps 749 mmHg 93%
    07:00 +9°C° 0.1 mm 5 mps 749 mmHg 92%
    08:00 +9°C° 0.1 mm 5 mps 748 mmHg 90%
    09:00 +10°C° 0.1 mm 6 mps 748 mmHg 88%
    10:00 +10°C° 1 mm 6 mps 748 mmHg 90%
    11:00 +10°C° 1 mm 5 mps 747 mmHg 91%
    12:00 +10°C° 1 mm 5 mps 747 mmHg 93%
    13:00 +10°C° 1.8 mm 5 mps 747 mmHg 92%
    14:00 +10°C° 1.8 mm 5 mps 747 mmHg 91%
    15:00 +12°C° 1.8 mm 5 mps 746 mmHg 91%
    16:00 +12°C° 1 mm 5 mps 746 mmHg 91%
    17:00 +12°C° 1 mm 5 mps 746 mmHg 92%
    18:00 +12°C° 1 mm 5 mps 746 mmHg 92%
    19:00 +10°C° 0.5 mm 5 mps 747 mmHg 93%
    20:00 +10°C° 0.5 mm 5 mps 747 mmHg 94%
    21:00 +9°C° 0.5 mm 5 mps 748 mmHg 95%
    22:00 +8°C° 0.3 mm 4 mps 748 mmHg 96%
    23:00 +9°C° 0.3 mm 3 mps 748 mmHg 96%
    Show more